Location: S�vij�rvi
(61.6333°N, 22.7667°E)
Time: 02:23:15
(UTC+00:00)

Daily predictions for brighter satellites

Satellite Brightness Start Highest point End
(mag) Time Altitude Azimuth Time Altitude Azimuth Time Altitude Azimuth
Cosmos 1805 Rocket 4.5 00:02:36 10° NNW 00:05:36 40° NW 00:05:36 40° NW
Cosmos 1898 Rocket 4.4 00:01:56 10° NNW 00:07:02 48° NE 00:12:08 10° ESE
Cosmos 1452 Rocket 4.4 00:06:47 35° WNW 00:08:00 40° NW 00:12:59 10° NNE
Resurs 1-4 Rocket 2.5 00:04:43 10° NNE 00:09:55 54° ESE 00:10:53 47° SE
Cosmos 2227 Rocket 3.5 00:05:29 10° NW 00:08:31 27° WNW 00:08:31 27° WNW
Cosmos 1818 3.9 00:10:55 52° SE 00:11:02 52° SE 00:16:20 10° ENE
CZ-2D R/B 2.5 00:07:38 10° NNE 00:12:54 56° ESE 00:13:55 48° SE
Cosmos 864 Rocket 4.4 00:06:53 10° NNW 00:12:59 67° W 00:13:46 60° SW
Cosmos 1110 Rocket 4.3 00:12:47 52° WNW 00:13:29 56° NW 00:18:43 10° NNE
Timation 1 Rocket 4.2 00:09:11 10° NW 00:15:08 65° SW 00:15:24 64° SW
Cosmos 1331 Rocket 4.3 00:17:48 51° WNW 00:18:28 55° NW 00:23:35 10° NNE
Cosmos 1656 Rocket 4.2 00:18:45 39° WNW 00:20:17 50° NNW 00:25:46 10° NE
Cosmos 1302 Rocket 3.9 00:20:48 69° WSW 00:21:18 76° NW 00:26:36 10° NE
IRAS Rocket 4.2 00:22:54 63° SW 00:23:22 66° WSW 00:28:58 10° NNW
SJ 16-02 1.7 00:20:00 10° NNW 00:24:23 63° NE 00:26:08 34° ESE
Meteor 1-22 4.5 00:20:29 10° NNW 00:25:59 84° WSW 00:27:00 61° S
Cosmos 1943 Rocket 3.4 00:24:28 20° WNW 00:27:39 36° NNW 00:32:47 10° NE
Cosmos 1937 Rocket 4.3 00:23:21 10° NNW 00:28:25 50° NE 00:33:25 10° ESE
Cosmos 1933 4.2 00:30:52 41° ESE 00:31:18 43° E 00:35:11 10° NNE
NPP 3.9 00:25:59 10° NNE 00:31:23 63° ESE 00:32:50 46° SSE
Meteor 1-29 4.2 00:28:45 10° NNE 00:30:57 36° N 00:30:57 36° N
Cosmos 405 3.8 00:33:03 48° ENE 00:33:03 48° ENE 00:35:53 10° NNE
Cosmos 2221 3.1 00:33:12 47° NW 00:33:12 47° NW 00:37:04 10° N
NOSS 3-4 (A) 3.6 00:27:29 10° WNW 00:34:03 82° SSW 00:41:25 10° ESE
NOSS 3-4 (C) 3.6 00:27:36 10° WNW 00:34:10 82° SSW 00:41:31 10° ESE
COBE Rocket 4.2 00:34:35 53° W 00:34:35 53° W 00:39:30 10° NNW
Lacrosse 5 3.3 00:34:39 24° SE 00:34:39 24° SE 00:38:30 10° E
SL-08 R/B 4.5 00:28:12 10° NNW 00:34:35 69° W 00:36:21 48° SSW
ATLAS 5 CENTAUR R/B 1.6 00:34:44 71° SSE 00:34:49 72° SSE 00:39:58 10° ENE
SL-08 R/B 3.5 00:34:03 36° SE 00:35:52 69° ENE 00:40:29 10° NNW
RESURS DK-1 4.4 00:33:12 10° NW 00:36:49 27° N 00:40:26 10° ENE
Cosmos 2181 Rocket 3.9 00:37:22 51° SW 00:38:59 76° WNW 00:45:18 10° NNE
Meteor 1-20 Rocket 4.0 00:33:43 10° NNW 00:39:13 76° WSW 00:40:26 54° S
Meteor 1-14 Rocket 4.3 00:33:42 10° NNW 00:39:23 74° ENE 00:43:03 22° SSE
AQUA 4.1 00:35:29 10° NNE 00:40:15 62° ESE 00:41:16 49° SSE
ARIANE 5 R/B 4.2 00:37:08 10° NNE 00:41:33 28° E 00:45:09 13° SE
COSMOS 2455 3.6 00:37:40 10° WNW 00:43:36 52° N 00:49:31 10° E
NOSS 2-1 (E) 3.3 00:44:06 72° E 00:44:06 72° E 00:48:13 10° ENE
Cosmos 1606 2.8 00:45:51 72° ENE 00:45:51 72° ENE 00:49:25 10° NNE
H-2A R/B 3.6 00:44:41 10° ESE 00:48:48 37° ENE 00:52:59 10° N
Genesis I 3.2 00:49:32 74° E 00:49:32 74° E 00:53:07 10° ENE
SL-19 R/B 4.3 00:48:05 50° SSW 00:49:15 61° WSW 00:55:03 10° NNW
ATLAS CENTAUR R/B 3.9 00:34:44 10° W 00:51:45 69° S 00:57:48 10° ESE
IRS-1D 4.0 00:47:29 10° NNE 00:52:48 58° ESE 00:55:05 33° SSE
Sich 1 4.4 00:49:20 10° NNW 00:51:52 27° WNW 00:51:52 27° WNW
Cosmos 2369 4.4 00:51:28 33° SSE 00:53:34 47° ESE 00:59:03 10° NE
SL-19 R/B 4.1 00:49:35 10° NNE 00:54:47 69° WNW 00:55:58 51° WSW
Cosmos 2297 Rocket 4.2 00:52:20 10° WNW 00:53:24 13° WNW 00:53:24 13° WNW
CBERS-1 4.4 00:52:31 10° NNE 00:57:36 58° ESE 00:59:46 33° SSE
ATLAS 2AS CENTAUR R/B 2.8 00:50:02 10° WNW 00:57:51 80° SSW 01:05:05 10° SE
ERS-2 4.4 00:55:47 10° ESE 00:58:51 26° NE 01:01:57 10° N
ADEOS Rocket 4.3 00:53:23 10° ESE 00:59:07 40° NE 01:04:25 10° NNW
Cosmos 972 Rocket 4.5 00:59:28 33° SSE 01:01:16 50° ESE 01:06:13 10° NE
ADEOS II 2.4 00:56:43 10° NNE 01:01:57 61° ESE 01:04:23 31° S
Cosmos 220 Rocket 3.8 01:01:56 70° SSW 01:02:24 86° SE 01:06:45 10° NE
Cosmos 1470 Rocket 3.5 00:58:39 10° NNW 01:03:04 64° W 01:03:16 63° WSW
SL-16 R/B 3.2 01:04:18 33° W 01:04:37 34° W 01:10:11 10° NNW
Cosmos 990 Rocket 3.9 00:59:30 10° NW 01:04:44 88° SW 01:09:58 10° SSE
IDEFIX/ARIANE 42P 4.0 01:00:49 10° NNE 01:05:38 34° E 01:10:26 10° SSE
Cosmos 1782 3.7 01:06:42 32° SSE 01:08:08 47° E 01:12:02 10° NNE
NOSS 7 (E) 4.5 01:09:14 70° NNE 01:09:14 70° NNE 01:12:43 10° E
Cosmos 2369 Rocket 3.5 01:07:25 15° WNW 01:11:28 35° NNW 01:16:41 10° NE
Meteor 1-28 Rocket 3.2 01:13:48 59° WNW 01:13:48 59° WNW 01:17:09 10° NNW
Cosmos 1697 Rocket 2.9 01:14:51 36° SSW 01:17:08 66° SE 01:22:43 10° NE
Helios 1B rocket 3.8 01:14:12 10° N 01:17:40 26° NW 01:18:05 26° WNW
Cosmos 2263 Rocket 2.3 01:13:48 10° NW 01:19:15 51° WSW 01:24:44 10° SSE
Meteor 1-11 Rocket 4.2 01:13:48 10° NNW 01:19:39 65° ENE 01:25:18 10° SSE
Iridium 2 4.5 01:18:12 27° SSE 01:19:53 49° E 01:23:34 10° NNE
CZ-4B R/B 4.1 01:18:46 10° ESE 01:21:19 21° NE 01:23:56 10° N
Cosmos 1980 Rocket 2.9 01:20:37 25° S 01:23:41 49° ESE 01:29:07 10° NE
Cosmos 1844 Rocket 2.9 01:18:23 10° NW 01:24:03 74° NE 01:29:44 10° SE
Celestis-02/Orion 38 4.5 01:19:09 10° SSE 01:24:19 65° SW 01:29:25 10° NW
USA 234 3.5 01:18:50 10° SE 01:25:00 43° SSW 01:28:11 26° W
Cosmos 2278 Rocket 3.5 01:20:01 10° NW 01:25:24 41° NNE 01:30:45 10° E
Cosmos 1821 Rocket 4.2 01:20:05 10° NNW 01:26:08 49° W 01:28:34 33° SW
Cosmos 389 Rocket 3.2 01:26:29 34° SSE 01:27:41 51° E 01:31:13 10° NNE
Cosmos 1844 3.9 01:23:32 10° NW 01:29:09 70° NE 01:34:43 10° SE
Cosmos 1151 Rocket 2.9 01:28:20 47° SW 01:29:31 75° WNW 01:33:55 10° NNE
Cosmos 1515 Rocket 3.7 01:27:58 32° S 01:29:59 74° ESE 01:34:26 10° NNE
USA 307 4.3 01:29:59 24° SSE 01:30:13 24° SSE 01:33:39 10° ESE
Cosmos 1633 Rocket 4.3 01:26:57 10° NNW 01:29:56 26° WNW 01:29:56 26° WNW
Cosmos 1934 Rocket 3.9 01:26:07 10° NNW 01:32:07 64° W 01:36:29 19° S
Cosmos 1500 3.0 01:28:35 10° NNW 01:32:28 79° WSW 01:33:57 36° S
Cosmos 2322 Rocket 4.3 01:28:49 10° SSE 01:33:04 22° ESE 01:37:20 10° NE
CZ-4B R/B 3.5 01:27:59 10° NNE 01:33:06 88° WNW 01:35:39 31° SSW
USA 308 4.3 01:33:10 24° S 01:33:31 24° SSE 01:36:59 10° ESE
Cosmos 44 4.4 01:32:09 23° S 01:34:11 34° SE 01:38:30 10° ENE
Cosmos 1656 3.6 01:32:51 36° WSW 01:35:11 75° NW 01:40:49 10° NE
Cosmos 1328 Rocket 3.5 01:35:10 41° SW 01:36:37 71° WNW 01:41:05 10° NNE
NOSS 2-1 (C) 3.4 01:35:35 42° W 01:36:47 74° N 01:41:25 10° ENE
CZ-2D R/B 4.4 01:33:27 10° NNE 01:37:32 46° E 01:40:59 14° S
Cosmos 1666 3.0 01:33:48 10° NNW 01:37:39 66° ENE 01:41:27 10° SSE
Cosmos 1933 Rocket 3.9 01:35:43 10° NNW 01:39:53 44° W 01:40:30 41° WSW
NOSS 2-1 (D) 3.4 01:40:30 39° W 01:41:51 73° N 01:46:29 10° ENE
IRS-1C 4.2 01:37:04 10° NNE 01:42:28 78° ESE 01:46:10 21° SSW
Meteor 1-4 Rocket 4.4 01:39:42 10° SSE 01:42:47 29° E 01:45:55 10° NNE
Cosmos 372 Rocket 4.1 01:38:01 10° NW 01:43:14 75° NE 01:48:23 10° SE
Cosmos 1992 Rocket 4.4 01:41:12 31° WSW 01:43:23 52° NW 01:48:30 10° NNE
SL-16 R/B 3.9 01:39:18 10° SSE 01:44:04 29° ESE 01:48:51 10° NE
Cosmos 1238 Rocket 4.1 01:39:47 10° NNW 01:46:18 58° W 01:51:14 16° SSW
Cosmos 1536 3.2 01:45:01 10° NNW 01:49:05 65° ENE 01:53:09 10° SSE
Cosmos 1898 Rocket 3.5 01:44:10 10° NW 01:49:17 55° WSW 01:54:25 10° S
Cosmos 1812 3.7 01:46:29 13° SSE 01:49:43 46° E 01:53:27 10° NNE
Resurs 1-4 Rocket 2.7 01:44:45 10° NNE 01:49:44 43° WNW 01:51:57 28° WSW
Cosmos 1733 Rocket 3.7 01:45:43 10° N 01:50:03 55° ENE 01:54:19 10° SSE
CZ-2C R/B 4.3 01:45:33 10° NNE 01:50:04 30° E 01:54:37 10° SSE
CZ-4C R/B 2.7 01:43:59 10° WNW 01:50:25 84° SSW 01:58:13 10° ESE
CZ-2D R/B 2.7 01:47:54 10° NNE 01:52:56 43° NW 01:55:13 27° WSW
Cosmos 1818 3.6 01:51:33 28° WSW 01:54:33 76° NNW 02:00:03 10° ENE
ASTEX 1 3.4 01:50:06 10° N 01:55:09 84° W 01:59:09 16° SSW
Meteor 1-26 Rocket 4.1 01:52:08 24° SSW 01:55:29 78° WNW 02:00:59 10° NNE
Cosmos 858 Rocket 4.4 01:51:55 10° NW 01:57:03 61° WSW 02:02:10 10° SSE
Cosmos 2298 Rocket 4.3 01:53:31 10° NW 01:58:53 73° NE 02:04:12 10° SE
Cosmos 1869 Rocket 3.5 01:55:42 10° NNW 01:59:59 59° W 02:03:44 13° S
IRIDIUM 104 4.3 01:55:39 10° N 02:00:56 88° W 02:06:10 10° S
SJ 16-02 2.1 01:58:53 10° NW 02:02:44 30° WSW 02:02:59 30° WSW
Cosmos 1153 Rocket 4.5 01:57:49 10° NNW 02:04:15 79° W 02:10:35 10° S
Cosmos 1605 Rocket 4.1 01:58:20 10° NNW 02:04:38 60° W 02:10:54 10° S
Nadezhda 3 Rocket 4.1 02:01:33 23° SW 02:05:21 57° WNW 02:11:28 10° NNE
Meteor 1-5 Rocket 4.2 02:00:56 10° NNW 02:06:06 54° W 02:11:20 10° S
Cosmos 405 4.4 02:06:51 22° WNW 02:07:21 23° NW 02:10:16 10° N
Cosmos 1933 4.1 02:06:43 29° W 02:07:56 36° WNW 02:11:45 10° N
IRIDIUM 114 4.2 02:04:49 10° N 02:10:04 78° W 02:15:18 10° S
Cosmos 1937 Rocket 3.6 02:05:29 10° NW 02:10:29 51° WSW 02:15:26 10° S
NPP 4.3 02:06:28 10° NNE 02:11:28 39° NW 02:14:20 22° WSW
Cosmos 1943 Rocket 3.7 02:07:42 10° NW 02:12:45 33° N 02:17:45 10° ENE
Cosmos 2016 Rocket 4.4 02:07:31 10° NNW 02:13:39 65° ENE 02:19:43 10° SSE
Cosmos 2228 Rocket 3.0 02:10:31 16° SSW 02:13:59 86° WNW 02:18:29 10° NNE
SL-08 R/B 4.2 02:13:02 25° WSW 02:14:07 28° W 02:18:06 10° NNW
Landsat 5 3.6 02:10:10 10° S 02:14:38 61° WSW 02:19:00 10° NNW
Cosmos 2061 Rocket 4.5 02:08:59 10° NNW 02:15:26 67° ENE 02:21:51 10° SSE
RESURS DK-1 3.4 02:11:37 10° NW 02:15:41 47° NNE 02:19:45 10° ESE
Cosmos 1689 Rocket 4.4 02:13:37 10° ESE 02:16:14 28° ENE 02:18:52 10° N
Lacrosse 5 2.4 02:13:50 23° SW 02:16:37 45° SSE 02:21:27 10° E
USA 32 4.0 02:12:28 10° N 02:17:46 83° W 02:23:02 10° S
IRIDIUM 103 4.3 02:14:00 10° N 02:19:13 69° W 02:24:25 10° S
ATLAS 5 CENTAUR R/B 2.0 02:16:15 20° W 02:19:33 73° N 02:25:06 10° E
ARIANE 5 R/B 2.5 02:16:03 10° NNE 02:21:12 76° WNW 02:25:30 14° SSW
IRS-P3 4.2 02:16:21 10° NNE 02:21:39 63° WNW 02:25:44 17° SW
Cosmos 1606 4.2 02:20:52 19° WNW 02:21:48 21° WNW 02:24:45 10° N
Cosmos 1125 Rocket 3.8 02:16:33 10° NW 02:21:54 72° NE 02:27:10 10° SE
Exosat Rocket 4.2 02:17:20 10° NW 02:23:01 85° NE 02:30:50 10° SE
Cosmos 972 4.3 02:20:12 18° SSW 02:23:54 84° WNW 02:28:55 10° NNE
NOSS 3-4 (A) 4.1 02:18:21 10° WNW 02:24:35 40° SW 02:31:26 10° SSE
NOSS 3-4 (C) 4.1 02:18:27 10° WNW 02:24:41 41° SW 02:31:33 10° SSE
H-2A R/B 2.3 02:20:20 10° S 02:24:42 52° WSW 02:29:09 10° NNW
Meteor 2-6 Rocket 4.3 02:19:02 10° SSW 02:24:50 89° ESE 02:30:50 10° NNE
CZ-4C R/B 3.3 02:21:27 10° S 02:24:52 43° W 02:28:15 10° NNW
Cosmos 1743 3.1 02:21:29 10° N 02:25:18 65° ENE 02:29:06 10° SSE
Cosmos 2150 Rocket 4.1 02:21:26 10° NW 02:26:58 87° WSW 02:32:25 10° SSE
Genesis I 3.6 02:24:25 19° W 02:27:01 56° N 02:30:52 10° ENE
ERBS 4.3 02:25:39 13° S 02:27:30 19° SSE 02:30:01 10° ESE
Cosmos 2278 3.7 02:23:24 19° SW 02:27:40 83° NW 02:33:26 10° NE
USA 267 4.2 02:22:13 10° E 02:28:14 37° SSE 02:34:08 10° SSW
CZ-2C R/B 2.8 02:24:41 10° NNE 02:28:29 78° ESE 02:32:19 10° SSW
COSMOS 2455 3.0 02:24:04 10° NW 02:30:10 80° NNE 02:36:15 10° ESE
Cosmos 1763 Rocket 4.2 02:25:34 10° S 02:30:44 54° ESE 02:35:53 10° NE
IRS-1D 4.2 02:26:56 10° NNE 02:31:58 42° NW 02:35:33 18° WSW
ERS-2 2.1 02:28:33 10° S 02:32:11 61° WSW 02:35:51 10° NNW
NOSS 2-1 (E) 3.7 02:31:25 17° W 02:34:25 70° N 02:39:32 10° E
Cosmos 1725 Rocket 4.3 02:29:19 10° NNW 02:35:34 74° ENE 02:41:45 10° SSE
Cosmos 1544 3.6 02:32:47 10° N 02:36:23 60° ENE 02:39:56 10° SSE
USA 305 4.1 02:34:11 18° SW 02:36:28 29° S 02:40:09 10° ESE
IRIDIUM 106 4.5 02:32:24 10° NNW 02:37:29 54° W 02:42:34 10° SSW
Cosmos 2369 3.9 02:33:25 18° WSW 02:37:42 64° NW 02:43:26 10° NE
USA 306 4.1 02:38:23 17° SW 02:40:48 29° S 02:44:30 10° ESE
ADEOS II 2.7 02:36:40 10° NNE 02:41:32 39° NW 02:45:20 16° WSW
Aureole 2 Rocket 4.0 02:38:57 10° NNW 02:41:52 33° NE 02:44:38 10° ESE
Cosmos 2100 Rocket 4.0 02:37:26 10° NNW 02:43:48 68° W 02:50:07 10° S
ADEOS Rocket 2.9 02:38:11 10° S 02:44:32 68° WSW 02:50:19 10° NNW
Cosmos 1782 3.7 02:42:19 18° WSW 02:44:38 32° WNW 02:48:19 10° N
IDEFIX/ARIANE 42P 2.6 02:40:22 10° NNE 02:45:36 65° WNW 02:50:50 10° SW
PAYLOAD A 4.1 02:42:00 10° NNE 02:46:44 69° ESE 02:51:26 10° S
Cosmos 972 Rocket 4.5 02:43:14 17° WSW 02:46:48 44° NW 02:51:47 10° NNE
Cosmos 1975 3.6 02:43:44 10° N 02:47:45 57° ENE 02:51:42 10° SSE
ATLAS 2AS CENTAUR R/B 3.3 02:41:16 10° WNW 02:48:09 38° SW 02:54:35 10° S
EP 3 4.2 02:48:57 23° WNW 02:50:01 52° N 02:52:18 10° ENE
Cosmos 1459 Rocket 3.9 02:44:57 10° NNW 02:51:02 66° W 02:57:00 10° S
Cosmos 1727 Rocket 4.0 02:46:02 10° SSW 02:52:23 82° WNW 02:58:44 10° NNE
Cosmos 1802 Rocket 3.9 02:46:33 10° NNW 02:52:43 74° W 02:58:57 10° S
CZ-4B R/B 1.3 02:50:04 10° S 02:53:18 63° WSW 02:56:39 10° NNW
COSMO-SKYMED 1 3.0 02:52:10 10° SSE 02:56:28 67° ENE 03:00:50 10° NNW
APEX 4.3 02:51:44 10° NW 02:56:35 74° NE 03:02:40 10° SE
Cosmos 921 Rocket 3.0 02:52:56 12° SW 02:56:45 64° NW 03:00:59 10° NNE
Cosmos 2369 Rocket 3.6 02:51:38 10° NW 02:56:53 36° NNE 03:02:07 10° E
Cosmos 2360 Rocket 3.5 02:52:19 10° S 02:57:34 40° ESE 03:02:50 10° NE
Cosmos 1697 Rocket 3.1 02:56:36 13° WSW 03:01:23 50° NNW 03:06:53 10° NE
Cosmos 2263 Rocket 3.7 02:59:03 10° WNW 03:02:01 15° W 03:04:59 10° SW
Cosmos 389 Rocket 3.7 03:00:21 15° WSW 03:02:38 26° WNW 03:05:45 10° N
Cosmos 1782 Rocket 4.1 02:58:12 10° NNW 03:02:41 65° ENE 03:07:09 10° SSE
Meteor 1-11 Rocket 4.3 02:57:34 10° NNW 03:02:50 36° W 03:07:58 10° SSW
Cosmos 1484 Rocket 4.2 02:59:55 10° NNE 03:03:45 43° E 03:07:35 10° S
Cosmos 468 Rocket 4.1 02:58:28 10° SSW 03:03:46 86° ESE 03:09:03 10° NE
Cosmos 1908 Rocket 3.6 02:59:39 10° NNW 03:04:09 85° WSW 03:08:38 10° S
Cosmos 1980 Rocket 2.4 03:02:24 12° WSW 03:07:41 62° NW 03:13:19 10° NE
Cosmos 1844 Rocket 3.2 03:02:33 10° NW 03:07:42 38° WSW 03:12:52 10° S
USA 234 4.4 03:04:32 10° S 03:09:19 21° SW 03:14:09 10° W
SAR-Lupe-4 3.7 03:05:52 10° S 03:09:23 53° WSW 03:12:57 10° NNW
USA 307 4.1 03:06:10 12° WSW 03:09:30 29° S 03:13:12 10° ESE
Cosmos 2278 Rocket 2.3 03:04:24 10° NW 03:10:07 87° NE 03:15:49 10° SE
USA 308 4.1 03:09:22 11° WSW 03:12:49 29° S 03:16:30 10° ESE
Cosmos 1666 4.0 03:09:57 10° NW 03:12:53 21° W 03:15:47 10° SW
Cosmos 1844 4.1 03:07:54 10° NW 03:13:06 40° WSW 03:18:14 10° S
CZ-2D R/B 4.2 03:09:15 10° N 03:13:09 38° WNW 03:17:07 10° SW
Cosmos 44 3.2 03:10:35 11° WSW 03:15:04 88° NW 03:20:01 10° ENE
Cosmos 2322 Rocket 2.5 03:10:38 10° SSW 03:16:19 72° SE 03:22:02 10° NE
Meteor 1-31 Rocket 4.1 03:12:38 10° NNE 03:16:20 44° E 03:20:02 10° S
Meteor 1-4 Rocket 3.0 03:14:19 10° SW 03:17:42 42° WNW 03:21:10 10° N
Okean 1 4.2 03:14:46 10° S 03:18:44 56° E 03:22:42 10° NNE
Meteor 2-9 Rocket 4.1 03:13:31 10° NNW 03:19:07 79° WSW 03:24:32 10° S
Intercosmos 25 3.6 03:16:43 10° S 03:19:58 59° E 03:23:15 10° NNE
Meteor 1-27 Rocket 3.8 03:15:00 10° SSW 03:20:56 73° WNW 03:26:49 10° NNE
Cosmos 1707 Rocket 3.7 03:17:10 10° SSW 03:21:27 56° WNW 03:25:48 10° N
Cosmos 1536 4.0 03:21:54 10° NNW 03:25:11 23° W 03:28:27 10° SW
Cosmos 1812 3.6 03:22:12 10° SW 03:25:41 31° WNW 03:29:10 10° N
CZ-3B R/B 3.9 03:21:38 10° WSW 03:25:43 52° S 03:41:46 10° ESE
Cosmos 2173 Rocket 4.4 03:21:23 10° NNW 03:27:17 43° W 03:33:13 10° SSW
NOSS 2-1 (C) 3.8 03:23:31 10° WNW 03:27:30 81° NNE 03:32:53 10° ESE
SL-16 R/B 2.3 03:21:56 10° SW 03:27:38 89° SE 03:33:22 10° NE
Cosmos 1733 Rocket 3.8 03:23:51 10° NNW 03:27:39 30° W 03:31:25 10° SSW
CZ-4B R/B 4.5 03:24:54 10° NNE 03:28:22 36° E 03:31:43 10° SSE
Resurs 1-4 Rocket 3.9 03:25:12 10° N 03:28:29 17° NNW 03:31:46 10° WNW
CZ-2C R/B 2.5 03:23:38 10° NNE 03:28:45 72° WNW 03:33:55 10° SSW
Cosmos 1437 Rocket 3.1 03:25:50 10° S 03:29:39 69° ESE 03:33:34 10° NNE
ATLAS CENTAUR R/B 3.8 03:21:57 10° WNW 03:31:19 34° SW 03:35:30 10° SSE
CZ-2D R/B 3.9 03:28:33 10° N 03:31:52 17° NNW 03:35:10 10° WNW
NOSS 2-1 (D) 3.7 03:28:34 10° WNW 03:32:34 83° NNE 03:37:57 10° ESE
Cosmos 2285 Rocket 4.1 03:27:11 10° NW 03:33:32 64° WSW 03:39:53 10° SSE
ALOS 2.7 03:29:20 10° NNE 03:34:02 71° ESE 03:38:42 10° S
Meteor 2-11 Rocket 4.5 03:27:51 10° NNW 03:34:02 82° W 03:40:10 10° S
MSX 4.2 03:31:48 10° NNE 03:37:20 47° WNW 03:42:50 10° SW
CZ-4C R/B 3.3 03:32:23 10° WNW 03:38:45 44° SW 03:46:10 10° SSE
